Погода в Благовещенке

Погода в Благовещенке : погода сейчас, прогноз погоды и архив. Всё, что Вы хотите узнать о погоде в Благовещенке!

Поиск расширенной информации на нашем сайте:

Полезная информация: Вступление в сро сро вступление.

Другие новости

Новости СМИ2

Главная страница сайта

Новости сайта

03.07.2017

Напоминаем, что на нашем специализированном сайте Метеоцентр.Азия вы можете получить высокодетализированные автоматические прогнозы погоды по пунктам России, СНГ и мира в авиационном формате (включающие направление и скорость ветра, видимость, явления погоды, количество и форму облачности, нижнюю и верхнюю границу облачности).

Рекомендуем: Одесса транспортно экспедиторские - экспедиторские компании одесса ukrspec.com.

Погода в Благовещенке - сегодня

Время (UTC), дата Ветер
(°,м/с) 
Видим.   Явления Облачность Т
(°С)
Тd
(°С)
f(%) Тe
(°С)
Pmin
(гПа)
dP
(гПа)
Po
(мм)
O2
(г/м3)
Тmin Tmax R s Состояние
почвы
00 17.08.17 340 (С) 10 км    4/4 600 м 
[Sc]
+16 +14.2 89 +24  1022.6  0.2  753  284           
03 17.08.17 030 (СВ) 4000 м  дымка  10/10 600 м 
[Sc]
+15 +14.1 94 +23  1023.6  0.9  754  285           
06 17.08.17 360 (С) 20000 м    8/8 600 м 
[Sc]
+20.2 +13.6 66 +26  1023.6  0.3  754  280  +15         
09 17.08.17 010 (С) 20000 м    4/4 600 м 
[Sc]
+22.6 +6 34 +23  1023  -0.5  754  280           
12 17.08.17 010 (С) 20000 м    5/3 600 м верхняя 
[Sc|Ci fib]
+22.2 +5.9 35 +22  1022.7  -0.3  754  280           
15 17.08.17 330 (СЗ) 20000 м    8/3 600 м верхняя 
[Sc|Ci fib]
+20.3 +6.6 41 +20  1023.4  0.6  754  282    +22.9       
18 17.08.17 340 (С) н/о    8/8 600 м 
[Sc]
+15.6 +9.4 67 +17  1024.2  0.5  755  286    +22.9       
21 17.08.17 340 (С) н/о    ясно 
+13 +9 77 +13  1024.7  0.3  755  289           
00 18.08.17 350 (С) 4000 м  дымка  3/0 верхняя 
[Ci fib]
+10.8 +9.2 90 +12  1025.3  0.5  755  291           
03 18.08.17 020 (С) 20000 м    ясно 
+12.1 +9.3 83 +12  1026.7  1.4  756  290           
06 18.08.17 350 (С) 20000 м    6/6 1000 м 
[Cu med, cong]
+17.4 +6.9 50 +18  1026.8  0.4  757  285  +10.6         
09 18.08.17 360 (С) 20000 м    8/8 1000 м 
[Cu med, cong]
+18 +4.6 41 +18  1026.3  -0.4  756  285           
12 18.08.17 350 (С) 20000 м    9/9 600 м 
[Sc]
+18.4 +5.7 43 +19  1025.8  -0.5  756  284           
15 18.08.17 350 (С) 20000 м    3/3 600 м 
[Sc]
+16.4 +7.1 54 +17  1026.1  0.2  756  286    +19.7       
18 18.08.17 340 (С) н/о    ясно 
+11.8 +8.1 78 +12  1027.1  0.7  757  291    +19.7       
21 18.08.17 330 (СЗ) н/о  дымка  ясно 
+9.6 +7.9 89 +11  1027.1  -0.1  756  293           
00 19.08.17 280 (З) 2000 м  дымка  ясно 
+5.7 +4.8 94 +7  1027.6  0.2  757  298           
03 19.08.17 350 (С) 4000 м  дымка  3/0 верхняя 
[Ci fib]
+12 +9.6 85 +13  1028  0.8  757  291           
06 19.08.17 310 (СЗ) 20000 м    8/8 1000 м 
[Cu med, cong]
+18.5 +8.2 51 +19  1027.4  -0.2  757  284  +5.5         
09 19.08.17 320 (СЗ) 20000 м    9/8 600 м верхняя 
[Sc|Ci fib]
+20 +7 43 +20  1026.2  -1.1  756  283           
12 19.08.17 270 (З) 20000 м    8/5 600 м верхняя 
[Sc|Ci fib]
+22 +5 33 +22  1025.3  -0.7  756  281           
15 19.08.17 320 (СЗ) 10 км    6/6 600 м 
[Sc]
+17.8 +9.4 58 +19  1025.5  -0.1  756  284    +23.1       
18 19.08.17 300 (СЗ) н/о    ясно 
+11.6 +8.1 79 +13  1026.2  0.3  756  291    +23.1       
21 19.08.17 тихо ()   н/о  дымка  ясно 
+8.6 +6.4 86 +9  1026.2  -0.2  756  294           
00 20.08.17 тихо ()   4000 м  дымка  4/0 верхняя 
[Ci fib]
+7.3 +6 91 +7  1026.5  0.2  756  296           
Время (UTC), дата Ветер
(°,м/с) 
Видим.   Явления Облачность Т
(°С)
Тd
(°С)
f(%) Тe
(°С)
Pmin
(гПа)
dP
(гПа)
Po
(мм)
O2
(г/м3)
Тmin Tmax R s Состояние
почвы

Для получения пояснительной информации подведите курсор к названию столбца.

ПОГОДА в Благовещенке - архив

Всё, что Вы хотите узнать о погоде в Благовещенке - удобно и подробно!

Выберите нужную дату (начиная с 1 января 2015* года) и нажмите кнопку "Найти".
Будут отображены архивные сводки погоды по пункту Благовещенка, начиная с указанной даты.


Отображать данные в формате CSV (для использования в таблицах Excel)


Внимание! Наш архив погоды предназначен исключительно для личного некоммерческого использования в познавательных целях. Если Вам необходимы официальные справки о состоянии погоды (для производственных, юридических, коммерческих и т.п. целей), обращайтесь в органы Росгидромета.

*Примечание: данная дата относится к архиву по метеостанциям СССР (Россия, СНГ, Балтия).
Архив по метеостанциям Зарубежной Европы и Азии (кроме Китая) хранится 10 дней, по другим регионам земного шара (Китай, Африка, Америка, Австралия, Океания) - 1 день.

Благовещенка - район местоположения метеостанции


Название, широта, долгота, высота метеостанции:
Благовещенка 54.4°ш. 67°д. 151 м над ур. моря [Казахстан]

Дополнительная информация

В oтличие oт бoльшинства пoгoдных сайтoв мы публикуем пoдрoбную метеoинфoрмацию в детальнoм прoфессиoнальнoм фoрмате.

Характеристики температуры и влажнoсти вoздуха измеряются на высoте 2 м в тени вдали oт зданий и деревьев.
Скoрoсть ветра измеряется на высoте 10 м (на урoвне рoста челoвека скoрoсть ветра ниже в 1.5-2 раза). Если метеoстанция нахoдится в гoрoде или в лесу, тo скoрoсть ветра занижена на 2-4 м/с пo сравнению с oткрытым местoм. Скoрoсть ветра над акватoриями крупных рек и oзёр, а также на вершинах хoлмoв на 2-5 м/с выше, чем в oбычных услoвиях.
Атмoсфернoе давление в разных тoчках местнoсти мoжет значительнo oтличаться oт давления на метеoстанции, в зависимoсти oт услoвий рельефа (при пoдъёме на 10 м давление пoнижается примернo на 1 мм рт.ст.).